Regional Weather Roundup
Issued by NWS Albany, NY

Home | Current Version | Previous Version | Text Only | Print | Product List | Glossary On
Versions: 1 2 3 4 5 6 7 8 9 10 11 12 13 14 15 16 17 18 19 20 21 22 23 24 25 26 27 28 29 30 31 32 33 34 35 36 37 38 39 40 41 42 43 44 45 46 47 48 49 50
000
ASUS41 KALY 290810
RWRALY

NEW YORK STATE HOURLY WEATHER ROUNDUP
NATIONAL WEATHER SERVICE ALBANY NY
400 AM EDT THU SEP 29 2016

NOTE: "FAIR" INDICATES FEW OR NO CLOUDS BELOW 12,000 FEET WITH NO
SIGNIFICANT WEATHER AND/OR NO OBSTRUCTIONS TO VISIBILITY.

NYZ032-033-038>043-046>054-057>066-NYZ062>081-082-084-290900-
EAST


CITY           SKY/WX    TMP DP  RH WIND       PRES   REMARKS
ALBANY         CLOUDY    50  47  89 N3        30.35S
GLENS FALLS    PTCLDY    45  43  93 CALM      30.37R FOG
POUGHKEEPSIE   CLOUDY    57  49  74 N6        30.30S
NEWBURGH       CLOUDY    57  52  82 E8        30.31R
MONTGOMERY     CLOUDY    57  50  77 NE9       30.30R
WHITE PLAINS   CLOUDY    57  51  80 NE9       30.28R
ISLIP          CLOUDY    59  57  93 NE12      30.27R
NEW YORK CITY  CLOUDY    62  56  80 E26G33    30.26R
CENTRAL PARK   CLOUDY    60  54  80 E10G18    30.28R
$$

NYZ005>009-017-018-044>046-055-056-290900-
CENTRAL


CITY           SKY/WX    TMP DP  RH WIND       PRES   REMARKS
FULTON         MOCLDY    56  47  71 VRB7      30.27S
SYRACUSE       MOCLDY    54  47  77 E9        30.26S
ROME           CLOUDY    53  47  79 E13       30.32S
ELMIRA         LGT RAIN  57  52  83 E7        30.22S
BINGHAMTON     CLOUDY    52  49  89 E7        30.25R
MONTICELLO     CLOUDY    52  48  87 E14G21    30.30R
$$

NYZ026>034-041>043-087-290900-
NORTH


CITY           SKY/WX    TMP DP  RH WIND       PRES   REMARKS
WATERTOWN      PTCLDY    50  46  86 NE10      30.33R
FORT DRUM      NOT AVBL
OGDENSBURG     FAIR      49  47  95 NE5       30.37S
MASSENA        CLOUDY    52  48  86 NE8       30.40R
SARANAC LAKE   CLEAR     37  34  89 CALM      30.36R FOG
PLATTSBURGH    PTCLDY    48  46  93 CALM      30.39R
$$

NYZ001>004-010>016-019>021-085-290900-
WEST


CITY           SKY/WX    TMP DP  RH WIND       PRES   REMARKS
NIAGARA FALLS  CLOUDY    62  51  67 E12       30.15R
BUFFALO        LGT RAIN  60  52  74 E14       30.15S
DUNKIRK        CLOUDY    60  52  74 NE12      30.10F
JAMESTOWN      CLOUDY    57  52  82 E12       30.11S
WELLSVILLE     CLOUDY    54  52  93 E10       30.20S
ROCHESTER      LGT RAIN  59  51  75 E10       30.22R
PENN YAN       LGT RAIN  57  54  89 CALM      30.24R
$$

             KEY
       WCI = WIND CHILL INDEX
       VSB = VISIBILITY
       HX  = HEAT INDEX
$$



USA.gov is the U.S. government's official web portal to all federal, state and local government web resources and services.